{"data":{"norad_id":66416,"epoch":"2026-09-20T20:24:54.356832Z","epoch_age_seconds":97654,"freshness":"FRESH","line1":"1 66416U 25258E   26263.85062913 -.00000087  00000+0  79727-4 0  9999","line2":"2 66416  50.0061 312.7061 0000170 155.0403 205.0477 13.29327237 42463","mean_motion":13.29327237,"eccentricity":1.7e-5,"inclination_deg":50.0061,"raan_deg":312.7061,"arg_perigee_deg":155.0403,"mean_anomaly_deg":205.0477,"bstar":7.9727e-5,"rev_number":4246,"period_min":108.32547170626,"perigee_km":1149.1739356373,"apogee_km":1149.4298685599,"semimajor_km":7527.4389020986,"source":"CELESTRAK","updated_at":"2026-09-21T09:00:15.963622Z"}}